Back to catalog

SL-12 DEB

AliveMEO
NORAD 19753·DEBRIS·🇷🇺 Russia

Launched Jan 10, 1989 from Baikonur Cosmodrome

Loading…

Next Passes (next 24 hours)

TLE

FreshSource: Space-Track

Epoch: Sep 14, 2026, 11:49 UTC

1 19753U 89001E   26257.49274069 -.00000011  00000-0  00000-0 0  9999
2 19753  65.0028  69.1154 0024863 212.6702 151.5780  2.13160798293599

Track SL-12 DEB in real time with AllMySat

Download on the App Store